sat.trackr.live / text

‹ back to catalog

STARLINK-11644 [DTC]

NORAD 63672 · 2025-085J

PAYLOAD ACTIVE UNKNOWN

§ Identity

Operator
Country
US
Launch date
2025-04-28
Launch site
AFETR
Launch vehicle
Mass (kg)
RCS (m²)

Purposes: comms

External: N2YO · Heavens-Above · Gunter

§ Orbital elements

Epoch: 2026-09-20T21:40:09.689952Z

Period
91.67 min
Inclination
42.9990°
Eccentricity
0.0001537
Mean motion
15.70846493 rev/d
Perigee alt
355.4 km
Apogee alt
357.5 km
Semi-major
6,734.6 km
B*
8.4082e-4
RAAN
181.7488°
Arg perigee
260.0199°
Mean anomaly
100.0496°
Rev number
8,094

§ Raw data

STARLINK-11644 [DTC]1 63672U 25085J   26263.90288993  .00108893  00000+0  84082-3 0  99942 63672  42.9990 181.7488 0001537 260.0199 100.0496 15.70846493 80947

JSON: /api/v1/satellites/63672 · /tle

For live sub-satellite position, see the globe view (requires WebGL).

§ Visibility from observer

Set your observer location to see the next 7 days of passes ≥ 10°. The values pass through the URL so the page stays shareable.

No JS? Fill the form by hand. The geolocation button needs JavaScript.